Home   Weather   Oakhurst   Past weeks
Flag for USA

Past Weather in Oakhurst, California, USA — Yesterday and Last 2 Weeks

Now
84 °F

Partly sunny.


Feels Like: 82 °F
Forecast: 89 / 60 °F
Wind: 3 mph from Southeast

Location: Fresno Air Terminal

Current Time: Apr 19, 2019 at 1:31:29 pm

Latest Report: Apr 19, 2019 at 12:53 pm


Visibility: 10 mi

Pressure: 29.86 "Hg

Humidity: 31%

Dew Point: 50 °F

Location of OakhurstLocation

Past Weather in Oakhurst — Graph

°F

Oakhurst Temperature Yesterday

Maximum temperature yesterday: 89 °F (at 4:53 pm)
Minimum temperature yesterday: 56 °F (at 6:53 am)
Average temperature yesterday: 72 °F

High & Low Weather Summary for the Past Weeks

 TemperatureHumidityPressure
High89 °F (Apr 18, 4:53 pm)93% (Apr 16, 2:53 am)30.29 "Hg (Apr 16, 2:53 am)
Low47 °F (Apr 10, 5:53 am)17% (Apr 14, 5:53 pm)29.79 "Hg (Apr 14, 6:53 pm)
Average64 °F56%30.04 "Hg
* Reported Apr 4 11:53 am — Apr 19 11:53 am, Oakhurst. Weather by CustomWeather, © 2019

Note: Actual official high and low records may vary slightly from our data, if they occured in-between our weather recording intervals... More about our weather records

Advertising

Oakhurst Weather History for the Previous 24 Hours

Scroll right to see more
 ConditionsComfort  
Time TempWeatherWind HumidityBarometerVisibility
11:53 am
Fri, Apr 19
81 °FPartly sunny.5 mph35%29.89 "Hg10 mi
10:53 am77 °FScattered clouds.6 mph39%29.92 "Hg10 mi
9:53 am74 °FPartly sunny.6 mph45%29.93 "Hg10 mi
8:53 am69 °FPartly sunny.3 mph49%29.95 "Hg9 mi
7:53 am64 °FPartly sunny.5 mph63%29.95 "Hg10 mi
6:53 am61 °FCloudy.No wind72%29.95 "Hg6 mi
5:53 am61 °FPartly cloudy.3 mph72%29.94 "Hg8 mi
4:53 am63 °FPartly cloudy.No wind68%29.95 "Hg9 mi
3:53 am65 °FPartly cloudy.5 mph63%29.96 "Hg10 mi
2:53 am65 °FPassing clouds.5 mph61%29.98 "Hg10 mi
1:53 am64 °FPassing clouds.5 mph70%29.99 "Hg10 mi
12:53 am67 °FPassing clouds.No wind61%30.01 "Hg10 mi
11:53 pm
Thu, Apr 18
70 °FPassing clouds.No wind57%30.01 "Hg10 mi
10:53 pm72 °FPassing clouds.5 mph59%30.01 "Hg10 mi
9:53 pm75 °FPassing clouds.5 mph50%30.01 "Hg10 mi
8:53 pm79 °FPassing clouds.No wind39%30.00 "Hg10 mi
7:53 pm81 °FPassing clouds.5 mph33%29.99 "Hg10 mi
6:53 pm87 °FBroken clouds.6 mph24%29.99 "Hg10 mi
5:53 pm87 °FPartly sunny.5 mph23%29.99 "Hg10 mi
4:53 pm89 °FBroken clouds.6 mph22%30.01 "Hg10 mi
3:53 pm88 °FPartly sunny.3 mph22%30.03 "Hg10 mi
2:53 pm84 °FPartly sunny.3 mph26%30.05 "Hg10 mi
1:53 pm83 °FPartly sunny.3 mph28%30.09 "Hg10 mi
Weather by CustomWeather, © 2019

See weather overview